User: anonymous   Login
Location: Homewood
(41.1836°S, 175.9581°E)
Time: 04:44:17
(UTC+00:00)
Language:

AQUARIUS - Orbit

View from above orbital plane
View from above orbital plane
View from above satellite
View from above satellite

Ground track
Ground track

The orbit data is extracted from the following two-line orbital elements,

1 37673U 11024A   24164.91427852  .00001648  00000-0  24802-3 0  9997
2 37673  97.9942 174.5401 0001175  66.9923 356.9797 14.75780004699364
Epoch (UTC): 12 June 2024 21:56:33
Eccentricity: 0.0001175
inclination: 97.9942°
perigee height: 642 km
apogee height: 643 km
right ascension of ascending node: 174.5401°
argument of perigee: 66.9923°
revolutions per day: 14.75780004
mean anomaly at epoch: 356.9797°
orbit number at epoch: 69936

The dashed part of the orbit path shows where the satellite is in the earth's shadow,  

DLR